SVA3915 OERK-LTFM

Flight info

Callsign SVA3915
Flight time 3h 58m
Altitude 32000
Route IVONU Z710 GAS G662 NIMAR L550 NOVPA N697 MENLI L677 CVO A16 RASDA M855 TOMBI UM855 SISPI
Aircraft B77L/H-SDE1E2E3FGHIJ2J3J4J5M1RWXY/LB1D1

Departure

Time 2026-05-07 11:40
Airport King Khalid International Airport (OERK)

Arrival

Time 2026-05-07 15:38
Airport İstanbul Airport (LTFM)
Time Latitude Longitude Altitude Speed Heading
2026-05-07 11:04 24.97758 46.69385 2039 ft 0 kts 240°
2026-05-07 11:29 24.97759 46.69386 2029 ft 2 kts 240°
2026-05-07 11:29 24.97772 46.69409 2039 ft 4 kts 231°
2026-05-07 11:29 24.97791 46.69430 2036 ft 4 kts 217°
2026-05-07 11:29 24.97814 46.69445 2039 ft 4 kts 201°
2026-05-07 11:30 24.97840 46.69452 2039 ft 4 kts 179°
2026-05-07 11:30 24.97863 46.69448 2039 ft 2 kts 150°
2026-05-07 11:30 24.97864 46.69447 2039 ft 1 kts 150°
2026-05-07 11:34 24.97837 46.69465 2039 ft 11 kts 148°
2026-05-07 11:34 24.97736 46.69531 2037 ft 23 kts 150°
2026-05-07 11:35 24.97568 46.69634 2033 ft 31 kts 150°
2026-05-07 11:35 24.97440 46.69727 2036 ft 19 kts 121°
2026-05-07 11:35 24.97476 46.69838 2036 ft 15 kts 61°
2026-05-07 11:35 24.97494 46.69874 2036 ft 0 kts 61°
2026-05-07 11:36 24.97506 46.69899 2036 ft 11 kts 60°
2026-05-07 11:37 24.97564 46.70010 2036 ft 20 kts 60°
2026-05-07 11:37 24.97586 46.70051 2037 ft 0 kts 59°
2026-05-07 11:37 24.97609 46.70094 2035 ft 18 kts 60°
2026-05-07 11:38 24.97633 46.70236 2036 ft 20 kts 134°
2026-05-07 11:38 24.97588 46.70265 2037 ft 0 kts 150°
2026-05-07 11:38 24.97577 46.70271 2038 ft 10 kts 150°
2026-05-07 11:39 24.97413 46.70377 2038 ft 53 kts 150°
2026-05-07 11:39 24.96920 46.70690 2038 ft 109 kts 150°
2026-05-07 11:39 24.96117 46.71202 2043 ft 155 kts 150°
2026-05-07 11:39 24.95080 46.71875 2069 ft 187 kts 148°
2026-05-07 11:40 24.93968 46.72576 2490 ft 182 kts 146°
2026-05-07 11:40 24.92950 46.73462 2616 ft 197 kts 129°
2026-05-07 11:40 24.92004 46.74454 3253 ft 176 kts 134°
2026-05-07 11:40 24.91056 46.75344 3673 ft 178 kts 135°
2026-05-07 11:41 24.90072 46.76258 3851 ft 195 kts 136°
2026-05-07 11:41 24.88988 46.77259 4051 ft 212 kts 137°
2026-05-07 11:41 24.87796 46.78345 4163 ft 233 kts 141°
2026-05-07 11:41 24.86280 46.79094 4451 ft 246 kts 169°
2026-05-07 11:42 24.84563 46.78914 4989 ft 253 kts 196°
2026-05-07 11:42 24.83120 46.77780 5496 ft 262 kts 227°
2026-05-07 11:42 24.82335 46.75960 5806 ft 270 kts 250°
2026-05-07 11:42 24.81898 46.73908 6022 ft 279 kts 253°
2026-05-07 11:43 24.81492 46.71841 5993 ft 276 kts 253°
2026-05-07 11:43 24.81091 46.69754 6013 ft 281 kts 252°
2026-05-07 11:43 24.80682 46.67627 6015 ft 286 kts 254°
2026-05-07 11:43 24.80266 46.65485 6011 ft 285 kts 253°
2026-05-07 11:44 24.79853 46.63356 6005 ft 285 kts 253°
2026-05-07 11:44 24.79435 46.61231 6005 ft 283 kts 253°
2026-05-07 11:44 24.79018 46.59114 5996 ft 282 kts 252°
2026-05-07 11:44 24.78602 46.57011 5992 ft 281 kts 253°
2026-05-07 11:45 24.78187 46.54917 5999 ft 280 kts 253°
2026-05-07 11:45 24.77772 46.52827 6006 ft 279 kts 253°
2026-05-07 11:45 24.77356 46.50737 6108 ft 280 kts 253°
2026-05-07 11:45 24.76945 46.48680 6752 ft 279 kts 252°
2026-05-07 11:46 24.76529 46.46586 7405 ft 281 kts 253°
2026-05-07 11:46 24.76107 46.44470 8028 ft 283 kts 253°
2026-05-07 11:46 24.75685 46.42350 8691 ft 285 kts 253°
2026-05-07 11:46 24.75261 46.40218 9349 ft 286 kts 253°
2026-05-07 11:47 24.74838 46.38080 10036 ft 286 kts 253°
2026-05-07 11:47 24.74407 46.35917 10487 ft 296 kts 253°
2026-05-07 11:47 24.73939 46.33622 10646 ft 317 kts 253°
2026-05-07 11:47 24.73441 46.31170 10793 ft 338 kts 255°
2026-05-07 11:48 24.73284 46.28528 10881 ft 361 kts 273°
2026-05-07 11:48 24.73959 46.25803 11266 ft 378 kts 292°
2026-05-07 11:48 24.75262 46.23240 11841 ft 388 kts 297°
2026-05-07 11:48 24.76666 46.20695 12622 ft 389 kts 298°
2026-05-07 11:49 24.78082 46.18155 13514 ft 390 kts 298°
2026-05-07 11:49 24.79511 46.15611 14262 ft 392 kts 298°
2026-05-07 11:49 24.80940 46.13040 14956 ft 395 kts 298°
2026-05-07 11:49 24.82366 46.10443 15679 ft 397 kts 298°
2026-05-07 11:50 24.83790 46.07829 16403 ft 400 kts 298°
2026-05-07 11:50 24.85220 46.05194 17111 ft 402 kts 298°
2026-05-07 11:50 24.86659 46.02540 17827 ft 405 kts 298°
2026-05-07 11:50 24.88105 45.99871 18486 ft 407 kts 298°
2026-05-07 11:51 24.89562 45.97178 19018 ft 412 kts 297°
2026-05-07 11:51 24.91016 45.94493 19544 ft 415 kts 297°
2026-05-07 11:51 24.92503 45.91744 20045 ft 421 kts 297°
2026-05-07 11:51 24.94016 45.88946 20455 ft 428 kts 297°
2026-05-07 11:52 24.95545 45.86116 20954 ft 432 kts 297°
2026-05-07 11:52 24.97089 45.83262 21526 ft 434 kts 297°
2026-05-07 11:52 24.98640 45.80390 22050 ft 437 kts 297°
2026-05-07 11:52 25.00206 45.77492 22534 ft 441 kts 296°
2026-05-07 11:53 25.01784 45.74570 23011 ft 445 kts 296°
2026-05-07 11:53 25.03375 45.71620 23482 ft 449 kts 296°
2026-05-07 11:53 25.04954 45.68688 23886 ft 451 kts 296°
2026-05-07 11:53 25.06478 45.65679 24436 ft 447 kts 293°
2026-05-07 11:54 25.07860 45.62613 24963 ft 446 kts 291°
2026-05-07 11:54 25.09192 45.59514 25365 ft 449 kts 290°
2026-05-07 11:54 25.10521 45.56380 25751 ft 452 kts 290°
2026-05-07 11:54 25.11860 45.53231 26154 ft 455 kts 290°
2026-05-07 11:55 25.13218 45.50065 26581 ft 457 kts 290°
2026-05-07 11:55 25.14591 45.46890 27014 ft 459 kts 290°
2026-05-07 11:55 25.15972 45.43711 27437 ft 461 kts 290°
2026-05-07 11:55 25.17366 45.40507 27862 ft 463 kts 290°
2026-05-07 11:56 25.18747 45.37338 28244 ft 465 kts 290°
2026-05-07 11:56 25.20149 45.34119 28623 ft 467 kts 290°
2026-05-07 11:56 25.21561 45.30875 28994 ft 469 kts 290°
2026-05-07 11:56 25.22974 45.27623 29340 ft 471 kts 290°
2026-05-07 11:57 25.24394 45.24351 29681 ft 473 kts 290°
2026-05-07 11:57 25.25820 45.21066 30065 ft 474 kts 290°
2026-05-07 11:57 25.27241 45.17790 30453 ft 472 kts 290°
2026-05-07 11:57 25.28660 45.14517 30834 ft 472 kts 289°
2026-05-07 11:58 25.30077 45.11247 31267 ft 469 kts 289°
2026-05-07 11:58 25.31480 45.08006 31757 ft 466 kts 289°
2026-05-07 11:58 25.32857 45.04822 32216 ft 463 kts 289°
2026-05-07 11:58 25.34242 45.01615 32616 ft 462 kts 289°
2026-05-07 11:59 25.35622 44.98414 32980 ft 461 kts 288°
2026-05-07 11:59 25.37002 44.95212 33349 ft 460 kts 288°
2026-05-07 11:59 25.38376 44.92025 33762 ft 458 kts 288°
2026-05-07 11:59 25.39746 44.88843 33945 ft 459 kts 288°
2026-05-07 12:00 25.41119 44.85648 33938 ft 459 kts 288°
2026-05-07 12:00 25.43860 44.79278 33940 ft 456 kts 287°
2026-05-07 12:01 25.46560 44.72992 33941 ft 455 kts 287°
2026-05-07 12:01 25.49270 44.66675 33938 ft 454 kts 287°
2026-05-07 12:02 25.52132 44.60412 33952 ft 461 kts 294°
2026-05-07 12:02 25.56019 44.54665 33945 ft 471 kts 303°
2026-05-07 12:03 25.60764 44.49539 33943 ft 478 kts 308°
2026-05-07 12:03 25.65669 44.44566 33937 ft 477 kts 308°
2026-05-07 12:04 25.70558 44.39579 33954 ft 477 kts 308°
2026-05-07 12:04 25.75416 44.34574 33930 ft 477 kts 307°
2026-05-07 12:05 25.80237 44.29585 33946 ft 477 kts 307°
2026-05-07 12:05 25.85085 44.24561 33944 ft 477 kts 307°
2026-05-07 12:06 25.89937 44.19531 33936 ft 477 kts 307°
2026-05-07 12:06 25.94794 44.14491 33937 ft 478 kts 307°
2026-05-07 12:07 25.99656 44.09439 33936 ft 478 kts 307°
2026-05-07 12:07 26.04518 44.04382 33937 ft 479 kts 307°
2026-05-07 12:08 26.09355 43.99345 33954 ft 480 kts 307°
2026-05-07 12:08 26.14227 43.94267 33949 ft 480 kts 307°
2026-05-07 12:09 26.19094 43.89190 33964 ft 479 kts 307°
2026-05-07 12:09 26.23945 43.84123 33959 ft 477 kts 307°
2026-05-07 12:10 26.28678 43.78969 33971 ft 470 kts 302°
2026-05-07 12:10 26.32525 43.73199 33966 ft 458 kts 292°
2026-05-07 12:11 26.35799 43.67122 33969 ft 458 kts 292°
2026-05-07 12:11 26.39070 43.61074 33965 ft 459 kts 292°
2026-05-07 12:12 26.42394 43.54980 33964 ft 460 kts 292°
2026-05-07 12:12 26.45734 43.48869 33959 ft 461 kts 292°
2026-05-07 12:13 26.49075 43.42751 33971 ft 462 kts 292°
2026-05-07 12:13 26.52420 43.36613 33956 ft 463 kts 292°
2026-05-07 12:14 26.55769 43.30462 33960 ft 464 kts 292°
2026-05-07 12:14 26.59118 43.24304 33957 ft 464 kts 292°
2026-05-07 12:15 26.62475 43.18126 33961 ft 465 kts 292°
2026-05-07 12:15 26.65800 43.11992 33959 ft 464 kts 292°
2026-05-07 12:16 26.69147 43.05812 33959 ft 464 kts 292°
2026-05-07 12:16 26.72493 42.99638 33974 ft 464 kts 292°
2026-05-07 12:17 26.75835 42.93462 33962 ft 464 kts 292°
2026-05-07 12:17 26.79173 42.87289 33959 ft 463 kts 292°
2026-05-07 12:18 26.81943 42.82160 33970 ft 463 kts 292°
2026-05-07 12:18 26.85274 42.75985 33972 ft 463 kts 292°
2026-05-07 12:19 26.88603 42.69801 33961 ft 463 kts 292°
2026-05-07 12:19 26.91927 42.63622 33971 ft 463 kts 292°
2026-05-07 12:20 26.95227 42.57477 33965 ft 464 kts 292°
2026-05-07 12:20 26.98554 42.51275 33975 ft 464 kts 292°
2026-05-07 12:21 27.01880 42.45067 33972 ft 465 kts 292°
2026-05-07 12:21 27.05210 42.38847 33994 ft 465 kts 291°
2026-05-07 12:22 27.08543 42.32609 33982 ft 466 kts 291°
2026-05-07 12:22 27.11861 42.26360 33983 ft 466 kts 291°
2026-05-07 12:23 27.15177 42.20099 33976 ft 467 kts 291°
2026-05-07 12:23 27.18475 42.13873 33971 ft 467 kts 291°
2026-05-07 12:24 27.21790 42.07609 33976 ft 466 kts 291°
2026-05-07 12:24 27.25102 42.01346 33978 ft 466 kts 291°
2026-05-07 12:25 27.28407 41.95085 33990 ft 466 kts 290°
2026-05-07 12:25 27.31708 41.88823 33966 ft 465 kts 290°
2026-05-07 12:26 27.35001 41.82571 33985 ft 463 kts 290°
2026-05-07 12:26 27.38281 41.76334 34010 ft 462 kts 290°
2026-05-07 12:27 27.41683 41.70173 33968 ft 469 kts 296°
2026-05-07 12:27 27.46003 41.64542 33965 ft 484 kts 306°
2026-05-07 12:28 27.50990 41.59401 33996 ft 487 kts 307°
2026-05-07 12:28 27.56017 41.54273 33984 ft 488 kts 307°
2026-05-07 12:29 27.60993 41.49149 33977 ft 487 kts 307°
2026-05-07 12:29 27.65988 41.43970 33961 ft 487 kts 307°
2026-05-07 12:30 27.70956 41.38803 33989 ft 485 kts 307°
2026-05-07 12:30 27.75912 41.33647 34002 ft 484 kts 307°
2026-05-07 12:31 27.80861 41.28495 33992 ft 484 kts 307°
2026-05-07 12:31 27.85808 41.23340 33992 ft 484 kts 307°
2026-05-07 12:32 27.90750 41.18181 33990 ft 484 kts 307°
2026-05-07 12:32 27.95687 41.13019 34025 ft 483 kts 307°
2026-05-07 12:33 28.03101 41.05253 34004 ft 484 kts 307°
2026-05-07 12:33 28.08017 41.00108 34040 ft 484 kts 307°
2026-05-07 12:34 28.12974 40.94912 34011 ft 485 kts 307°
2026-05-07 12:34 28.17933 40.89704 34034 ft 486 kts 307°
2026-05-07 12:35 28.22889 40.84492 34013 ft 486 kts 307°
2026-05-07 12:35 28.27819 40.79303 34016 ft 486 kts 307°
2026-05-07 12:36 28.32791 40.74068 34011 ft 487 kts 307°
2026-05-07 12:36 28.37745 40.68833 34020 ft 487 kts 307°
2026-05-07 12:37 28.42701 40.63592 34016 ft 487 kts 307°
2026-05-07 12:37 28.47635 40.58373 34029 ft 487 kts 307°
2026-05-07 12:38 28.52599 40.53114 34029 ft 488 kts 307°
2026-05-07 12:38 28.57562 40.47846 34028 ft 488 kts 307°
2026-05-07 12:39 28.62533 40.42565 34034 ft 488 kts 307°
2026-05-07 12:39 28.67489 40.37290 34029 ft 487 kts 307°
2026-05-07 12:40 28.72443 40.32012 34031 ft 487 kts 307°
2026-05-07 12:40 28.77361 40.26766 34026 ft 487 kts 307°
2026-05-07 12:41 28.82315 40.21474 34032 ft 488 kts 308°
2026-05-07 12:41 28.87261 40.16183 34032 ft 487 kts 308°
2026-05-07 12:42 28.92192 40.10903 34025 ft 486 kts 308°
2026-05-07 12:42 28.97117 40.05621 34025 ft 485 kts 308°
2026-05-07 12:43 29.01996 40.00383 34023 ft 485 kts 308°
2026-05-07 12:43 29.06901 39.95107 34033 ft 483 kts 307°
2026-05-07 12:44 29.09034 39.92242 34028 ft 465 kts 292°
2026-05-07 12:44 29.10375 39.88974 34052 ft 449 kts 279°
2026-05-07 12:44 29.11160 39.82073 34035 ft 434 kts 263°
2026-05-07 12:45 29.11096 39.75107 34044 ft 440 kts 263°
2026-05-07 12:45 29.11073 39.68118 34021 ft 436 kts 264°
2026-05-07 12:46 29.11083 39.61231 34018 ft 432 kts 264°
2026-05-07 12:46 29.11097 39.54366 34028 ft 432 kts 264°
2026-05-07 12:47 29.11110 39.47504 34027 ft 431 kts 264°
2026-05-07 12:47 29.11119 39.40691 34024 ft 432 kts 264°
2026-05-07 12:48 29.11124 39.33823 34010 ft 433 kts 264°
2026-05-07 12:48 29.11127 39.26935 34014 ft 433 kts 264°
2026-05-07 12:49 29.11126 39.20034 34008 ft 434 kts 264°
2026-05-07 12:49 29.11122 39.13125 34010 ft 434 kts 264°
2026-05-07 12:50 29.11115 39.06212 34009 ft 436 kts 264°
2026-05-07 12:50 29.11107 38.99276 34000 ft 436 kts 264°
2026-05-07 12:51 29.11091 38.92380 34002 ft 436 kts 264°
2026-05-07 12:51 29.11060 38.85435 34013 ft 437 kts 264°
2026-05-07 12:52 29.11026 38.78477 34002 ft 438 kts 264°
2026-05-07 12:52 29.10993 38.71507 33998 ft 438 kts 264°
2026-05-07 12:53 29.10958 38.64541 34000 ft 438 kts 264°
2026-05-07 12:53 29.10919 38.57571 33999 ft 438 kts 264°
2026-05-07 12:54 29.10879 38.50598 33997 ft 439 kts 264°
2026-05-07 12:54 29.10836 38.43666 33989 ft 439 kts 264°
2026-05-07 12:55 29.10785 38.36687 33998 ft 439 kts 264°
2026-05-07 12:55 29.10719 38.29703 33993 ft 439 kts 264°
2026-05-07 12:56 29.10649 38.22721 33995 ft 439 kts 264°
2026-05-07 12:56 29.10581 38.15736 34006 ft 440 kts 265°
2026-05-07 12:57 29.10508 38.08727 33996 ft 442 kts 265°
2026-05-07 12:57 29.10433 38.01695 33977 ft 443 kts 264°
2026-05-07 12:58 29.10356 37.94705 34009 ft 442 kts 265°
2026-05-07 12:58 29.10273 37.87662 33998 ft 443 kts 265°
2026-05-07 12:59 29.10188 37.80595 33999 ft 444 kts 265°
2026-05-07 12:59 29.10099 37.73523 33997 ft 445 kts 265°
2026-05-07 13:00 29.10018 37.66433 34003 ft 447 kts 266°
2026-05-07 13:00 29.09923 37.59318 34013 ft 449 kts 266°
2026-05-07 13:01 29.09817 37.52211 34007 ft 450 kts 266°
2026-05-07 13:01 29.09741 37.45043 34015 ft 452 kts 267°
2026-05-07 13:02 29.09701 37.37834 34003 ft 454 kts 267°
2026-05-07 13:02 29.09658 37.30616 34006 ft 454 kts 267°
2026-05-07 13:03 29.09605 37.23392 34011 ft 454 kts 267°
2026-05-07 13:03 29.09542 37.16178 34011 ft 454 kts 267°
2026-05-07 13:04 29.09465 37.08954 33992 ft 454 kts 267°
2026-05-07 13:04 29.09396 37.01727 34002 ft 454 kts 267°
2026-05-07 13:05 29.09328 36.94535 33989 ft 455 kts 268°
2026-05-07 13:05 29.09256 36.87289 33989 ft 456 kts 268°
2026-05-07 13:06 29.09178 36.80017 33979 ft 457 kts 268°
2026-05-07 13:06 29.09096 36.72735 33976 ft 458 kts 268°
2026-05-07 13:07 29.09010 36.65483 33977 ft 459 kts 268°
2026-05-07 13:07 29.08923 36.58176 33972 ft 460 kts 268°
2026-05-07 13:08 29.08831 36.50863 33958 ft 460 kts 268°
2026-05-07 13:08 29.08698 36.43548 33958 ft 461 kts 267°
2026-05-07 13:09 29.08484 36.36225 33962 ft 461 kts 267°
2026-05-07 13:09 29.08264 36.28904 33967 ft 461 kts 267°
2026-05-07 13:10 29.08052 36.21582 33961 ft 461 kts 267°
2026-05-07 13:10 29.07829 36.14248 33967 ft 462 kts 268°
2026-05-07 13:11 29.07627 36.06900 33967 ft 463 kts 268°
2026-05-07 13:11 29.07416 35.99582 33973 ft 463 kts 268°
2026-05-07 13:12 29.07194 35.92222 33970 ft 464 kts 267°
2026-05-07 13:12 29.06966 35.84855 33980 ft 463 kts 267°
2026-05-07 13:13 29.06735 35.77495 33976 ft 463 kts 267°
2026-05-07 13:13 29.06540 35.71389 33975 ft 463 kts 268°
2026-05-07 13:14 29.06302 35.64037 33982 ft 463 kts 268°
2026-05-07 13:14 29.06061 35.56688 33985 ft 463 kts 267°
2026-05-07 13:15 29.05816 35.49326 33980 ft 463 kts 268°
2026-05-07 13:15 29.05565 35.41957 33978 ft 464 kts 268°
2026-05-07 13:16 29.05311 35.34585 33975 ft 465 kts 268°
2026-05-07 13:16 29.05053 35.27197 33977 ft 465 kts 268°
2026-05-07 13:17 29.04791 35.19808 33963 ft 466 kts 268°
2026-05-07 13:17 29.04511 35.12460 33956 ft 466 kts 267°
2026-05-07 13:18 29.04238 35.05063 33952 ft 466 kts 267°
2026-05-07 13:18 29.03971 34.97661 33958 ft 466 kts 267°
2026-05-07 13:19 29.03699 34.90230 33947 ft 467 kts 267°
2026-05-07 13:19 29.03427 34.82805 33945 ft 468 kts 268°
2026-05-07 13:20 29.03271 34.75381 33949 ft 467 kts 269°
2026-05-07 13:20 29.03553 34.67978 33958 ft 466 kts 278°
2026-05-07 13:21 29.04967 34.60769 33966 ft 465 kts 287°
2026-05-07 13:21 29.07023 34.53804 33963 ft 465 kts 288°
2026-05-07 13:22 29.09112 34.46805 33987 ft 465 kts 288°
2026-05-07 13:22 29.11178 34.39802 33989 ft 464 kts 287°
2026-05-07 13:23 29.13223 34.32807 33994 ft 463 kts 287°
2026-05-07 13:23 29.15260 34.25817 34010 ft 463 kts 287°
2026-05-07 13:24 29.17295 34.18827 34026 ft 463 kts 287°
2026-05-07 13:24 29.19325 34.11838 34019 ft 463 kts 287°
2026-05-07 13:25 29.21359 34.04834 34021 ft 464 kts 287°
2026-05-07 13:25 29.23391 33.97819 34022 ft 464 kts 287°
2026-05-07 13:26 29.25411 33.90797 34018 ft 464 kts 287°
2026-05-07 13:26 29.27403 33.83829 34013 ft 464 kts 287°
2026-05-07 13:27 29.29411 33.76821 34015 ft 463 kts 287°
2026-05-07 13:27 29.31420 33.69811 34020 ft 462 kts 287°
2026-05-07 13:28 29.33420 33.62821 34016 ft 461 kts 287°
2026-05-07 13:28 29.35417 33.55827 34020 ft 461 kts 287°
2026-05-07 13:29 29.37407 33.48839 34025 ft 460 kts 287°
2026-05-07 13:29 29.39390 33.41859 34015 ft 460 kts 287°
2026-05-07 13:30 29.41360 33.34911 34013 ft 461 kts 287°
2026-05-07 13:30 29.43339 33.27920 34016 ft 461 kts 287°
2026-05-07 13:31 29.45316 33.20917 34010 ft 461 kts 287°
2026-05-07 13:31 29.47290 33.13909 34013 ft 462 kts 287°
2026-05-07 13:32 29.49261 33.06899 34010 ft 462 kts 287°
2026-05-07 13:32 29.51230 32.99882 34009 ft 461 kts 287°
2026-05-07 13:33 29.53191 32.92877 34008 ft 461 kts 287°
2026-05-07 13:33 29.55153 32.85858 34011 ft 460 kts 288°
2026-05-07 13:34 29.58085 32.75356 34012 ft 460 kts 288°
2026-05-07 13:35 29.60024 32.68346 34020 ft 460 kts 287°
2026-05-07 13:35 29.61690 32.61303 34019 ft 460 kts 284°
2026-05-07 13:36 29.63250 32.54172 34030 ft 460 kts 284°
2026-05-07 13:36 29.64831 32.47042 34031 ft 460 kts 285°
2026-05-07 13:37 29.66436 32.39903 34034 ft 461 kts 285°
2026-05-07 13:37 29.68041 32.32774 34043 ft 461 kts 285°
2026-05-07 13:38 29.69643 32.25638 34045 ft 461 kts 285°
2026-05-07 13:38 29.71242 32.18495 34060 ft 461 kts 285°
2026-05-07 13:39 29.72839 32.11343 34044 ft 461 kts 285°
2026-05-07 13:39 29.74432 32.04197 34065 ft 461 kts 286°
2026-05-07 13:40 29.76022 31.97059 34053 ft 461 kts 285°
2026-05-07 13:40 29.77741 31.89977 34047 ft 457 kts 292°
2026-05-07 13:41 29.80522 31.83430 34060 ft 455 kts 302°
2026-05-07 13:41 29.84197 31.77506 34075 ft 454 kts 308°
2026-05-07 13:42 29.88007 31.71707 34082 ft 454 kts 307°
2026-05-07 13:42 29.91771 31.65864 34060 ft 454 kts 307°
2026-05-07 13:43 29.95528 31.60019 34053 ft 453 kts 307°
2026-05-07 13:43 29.99290 31.54186 34038 ft 453 kts 307°
2026-05-07 13:44 30.03030 31.48387 34053 ft 452 kts 308°
2026-05-07 13:44 30.06830 31.42639 34022 ft 445 kts 315°
2026-05-07 13:44 30.09205 31.40387 34066 ft 442 kts 327°
2026-05-07 13:45 30.11910 31.38714 34056 ft 442 kts 336°
2026-05-07 13:45 30.14831 31.37605 34031 ft 443 kts 347°
2026-05-07 13:45 30.17877 31.37059 34069 ft 444 kts 349°
2026-05-07 13:46 30.24016 31.36040 34031 ft 446 kts 349°
2026-05-07 13:46 30.30168 31.34965 34050 ft 448 kts 349°
2026-05-07 13:47 30.36343 31.33850 34045 ft 449 kts 349°
2026-05-07 13:47 30.42527 31.32729 34038 ft 451 kts 349°
2026-05-07 13:48 30.48728 31.31594 34048 ft 451 kts 349°
2026-05-07 13:48 30.54938 31.30435 34055 ft 451 kts 348°
2026-05-07 13:49 30.61141 31.29279 34056 ft 451 kts 349°
2026-05-07 13:49 30.67342 31.28130 34063 ft 451 kts 349°
2026-05-07 13:50 30.73541 31.26984 34063 ft 450 kts 349°
2026-05-07 13:50 30.79727 31.25837 34073 ft 450 kts 349°
2026-05-07 13:51 30.85902 31.24692 34071 ft 449 kts 349°
2026-05-07 13:51 30.92063 31.23548 34072 ft 446 kts 349°
2026-05-07 13:52 30.98135 31.22420 34072 ft 443 kts 349°
2026-05-07 13:52 31.04205 31.21291 34076 ft 440 kts 349°
2026-05-07 13:53 31.10240 31.20168 34087 ft 439 kts 349°
2026-05-07 13:53 31.16269 31.19048 34101 ft 439 kts 349°
2026-05-07 13:54 31.22301 31.17923 34102 ft 439 kts 349°
2026-05-07 13:54 31.28345 31.16796 34102 ft 440 kts 349°
2026-05-07 13:55 31.34403 31.15679 34100 ft 441 kts 349°
2026-05-07 13:55 31.40473 31.14567 34121 ft 442 kts 349°
2026-05-07 13:56 31.46563 31.13455 34115 ft 443 kts 349°
2026-05-07 13:56 31.52611 31.12345 34109 ft 443 kts 350°
2026-05-07 13:57 31.58755 31.11609 34117 ft 443 kts 353°
2026-05-07 13:57 31.64899 31.10954 34114 ft 443 kts 353°
2026-05-07 13:58 31.71049 31.10295 34123 ft 443 kts 353°
2026-05-07 13:58 31.76151 31.09743 34116 ft 443 kts 353°
2026-05-07 13:59 31.82300 31.09076 34117 ft 443 kts 353°
2026-05-07 13:59 31.88426 31.08411 34116 ft 443 kts 353°
2026-05-07 14:00 31.94557 31.07747 34116 ft 442 kts 353°
2026-05-07 14:00 32.00684 31.07084 34124 ft 442 kts 353°
2026-05-07 14:01 32.06807 31.06408 34126 ft 442 kts 352°
2026-05-07 14:01 32.12883 31.05727 34124 ft 442 kts 352°
2026-05-07 14:02 32.19015 31.05047 34128 ft 442 kts 352°
2026-05-07 14:02 32.25139 31.04374 34126 ft 442 kts 352°
2026-05-07 14:03 32.31262 31.03701 34124 ft 442 kts 352°
2026-05-07 14:03 32.37394 31.03027 34126 ft 442 kts 352°
2026-05-07 14:04 32.43520 31.02352 34123 ft 442 kts 352°
2026-05-07 14:04 32.49598 31.01682 34123 ft 441 kts 352°
2026-05-07 14:05 32.55715 31.01006 34129 ft 441 kts 352°
2026-05-07 14:05 32.61823 31.00330 34128 ft 440 kts 352°
2026-05-07 14:06 32.67929 30.99654 34131 ft 440 kts 352°
2026-05-07 14:06 32.74038 30.98977 34134 ft 440 kts 352°
2026-05-07 14:07 32.80100 30.98305 34130 ft 440 kts 352°
2026-05-07 14:07 32.86194 30.97629 34136 ft 440 kts 352°
2026-05-07 14:08 32.92289 30.96952 34126 ft 440 kts 352°
2026-05-07 14:08 32.98388 30.96277 34139 ft 440 kts 352°
2026-05-07 14:09 33.04477 30.95604 34130 ft 439 kts 352°
2026-05-07 14:09 33.10559 30.94953 34128 ft 439 kts 353°
2026-05-07 14:10 33.16670 30.94688 34126 ft 439 kts 354°
2026-05-07 14:10 33.22778 30.94472 34131 ft 439 kts 355°
2026-05-07 14:11 33.28835 30.94256 34139 ft 438 kts 354°
2026-05-07 14:11 33.34936 30.94031 34143 ft 438 kts 354°
2026-05-07 14:12 33.41033 30.93804 34131 ft 438 kts 354°
2026-05-07 14:12 33.47137 30.93576 34142 ft 438 kts 354°
2026-05-07 14:13 33.53236 30.93348 34126 ft 438 kts 354°
2026-05-07 14:13 33.59310 30.93121 34151 ft 439 kts 354°
2026-05-07 14:14 33.65417 30.92894 34142 ft 439 kts 354°
2026-05-07 14:14 33.71529 30.92666 34125 ft 440 kts 354°
2026-05-07 14:15 33.77645 30.92438 34138 ft 440 kts 354°
2026-05-07 14:15 33.83767 30.92212 34139 ft 440 kts 354°
2026-05-07 14:16 33.89891 30.91989 34137 ft 440 kts 354°
2026-05-07 14:16 33.96025 30.91755 34136 ft 440 kts 354°
2026-05-07 14:17 34.02147 30.91421 34148 ft 440 kts 353°
2026-05-07 14:17 34.08268 30.91062 34135 ft 441 kts 353°
2026-05-07 14:18 34.14394 30.90724 34135 ft 441 kts 353°
2026-05-07 14:18 34.20516 30.90395 34137 ft 440 kts 353°
2026-05-07 14:19 34.26598 30.90060 34135 ft 440 kts 353°
2026-05-07 14:19 34.32725 30.89739 34137 ft 440 kts 353°
2026-05-07 14:20 34.38851 30.89429 34136 ft 440 kts 353°
2026-05-07 14:20 34.44978 30.89123 34136 ft 440 kts 353°
2026-05-07 14:21 34.51110 30.88816 34139 ft 441 kts 353°
2026-05-07 14:21 34.57235 30.88513 34136 ft 441 kts 353°
2026-05-07 14:22 34.63322 30.88210 34136 ft 441 kts 354°
2026-05-07 14:22 34.69451 30.87995 34137 ft 441 kts 354°
2026-05-07 14:23 34.75591 30.87810 34136 ft 441 kts 354°
2026-05-07 14:23 34.81722 30.87623 34136 ft 441 kts 354°
2026-05-07 14:24 34.87879 30.87428 34136 ft 441 kts 354°
2026-05-07 14:24 34.94018 30.87233 34144 ft 441 kts 354°
2026-05-07 14:25 35.00153 30.87039 34137 ft 441 kts 354°
2026-05-07 14:25 35.06262 30.86847 34131 ft 441 kts 354°
2026-05-07 14:26 35.12399 30.86659 34127 ft 441 kts 354°
2026-05-07 14:26 35.18539 30.86460 34132 ft 441 kts 354°
2026-05-07 14:27 35.24679 30.86241 34131 ft 441 kts 354°
2026-05-07 14:27 35.30821 30.86023 34126 ft 442 kts 354°
2026-05-07 14:28 35.36966 30.85813 34140 ft 442 kts 354°
2026-05-07 14:28 35.43112 30.85606 34127 ft 442 kts 354°
2026-05-07 14:29 35.49239 30.85401 34130 ft 442 kts 354°
2026-05-07 14:29 35.55391 30.85200 34127 ft 442 kts 354°
2026-05-07 14:30 35.61544 30.84989 34128 ft 442 kts 354°
2026-05-07 14:30 35.67694 30.84660 34126 ft 442 kts 352°
2026-05-07 14:31 35.73801 30.84245 34122 ft 442 kts 352°
2026-05-07 14:31 35.79955 30.83850 34123 ft 442 kts 353°
2026-05-07 14:32 35.86107 30.83475 34126 ft 443 kts 353°
2026-05-07 14:32 35.92261 30.83103 34116 ft 443 kts 353°
2026-05-07 14:33 35.98419 30.82734 34114 ft 443 kts 353°
2026-05-07 14:33 36.04571 30.82357 34122 ft 443 kts 353°
2026-05-07 14:34 36.10735 30.82117 34110 ft 443 kts 354°
2026-05-07 14:34 36.16893 30.81946 34107 ft 442 kts 354°
2026-05-07 14:35 36.23046 30.81764 34111 ft 442 kts 354°
2026-05-07 14:35 36.29200 30.81573 34101 ft 442 kts 354°
2026-05-07 14:36 36.35339 30.81384 34105 ft 441 kts 354°
2026-05-07 14:36 36.41428 30.81189 34097 ft 440 kts 354°
2026-05-07 14:37 36.47550 30.80968 34097 ft 440 kts 354°
2026-05-07 14:37 36.56728 30.80626 34097 ft 440 kts 354°
2026-05-07 14:38 36.62847 30.80409 34099 ft 440 kts 354°
2026-05-07 14:38 36.68971 30.80194 34094 ft 440 kts 354°
2026-05-07 14:39 36.75099 30.79979 34101 ft 441 kts 354°
2026-05-07 14:39 36.81246 30.79765 34106 ft 442 kts 354°
2026-05-07 14:40 36.87397 30.79554 34105 ft 443 kts 354°
2026-05-07 14:40 36.93555 30.79254 34106 ft 441 kts 351°
2026-05-07 14:41 36.99662 30.78514 34102 ft 441 kts 349°
2026-05-07 14:41 37.05774 30.77706 34102 ft 442 kts 350°
2026-05-07 14:42 37.11895 30.76933 34116 ft 442 kts 350°
2026-05-07 14:42 37.17984 30.76184 34114 ft 443 kts 350°
2026-05-07 14:43 37.24110 30.75434 34121 ft 442 kts 350°
2026-05-07 14:43 37.30228 30.74683 34113 ft 441 kts 350°
2026-05-07 14:44 37.36343 30.73936 34143 ft 440 kts 350°
2026-05-07 14:44 37.42444 30.73177 34144 ft 440 kts 349°
2026-05-07 14:45 37.48527 30.72266 34146 ft 440 kts 348°
2026-05-07 14:45 37.54609 30.71336 34165 ft 440 kts 349°
2026-05-07 14:46 37.60690 30.70432 34159 ft 440 kts 349°
2026-05-07 14:46 37.66801 30.69664 34156 ft 442 kts 350°
2026-05-07 14:47 37.72919 30.68930 34184 ft 441 kts 349°
2026-05-07 14:47 37.78859 30.67328 34172 ft 434 kts 341°
2026-05-07 14:48 37.84696 30.65367 34179 ft 434 kts 342°
2026-05-07 14:48 37.90539 30.63451 34174 ft 434 kts 342°
2026-05-07 14:49 37.95409 30.61879 34186 ft 434 kts 342°
2026-05-07 14:49 38.01262 30.60013 34183 ft 434 kts 342°
2026-05-07 14:50 38.07126 30.58126 34190 ft 435 kts 342°
2026-05-07 14:50 38.13000 30.56226 34174 ft 436 kts 342°
2026-05-07 14:51 38.18874 30.54324 34177 ft 435 kts 342°
2026-05-07 14:51 38.24738 30.52421 34178 ft 435 kts 342°
2026-05-07 14:52 38.30615 30.50509 34166 ft 434 kts 342°
2026-05-07 14:52 38.36465 30.48605 34168 ft 433 kts 342°
2026-05-07 14:53 38.42270 30.46711 34173 ft 433 kts 342°
2026-05-07 14:53 38.48095 30.44810 34177 ft 432 kts 342°
2026-05-07 14:54 38.53912 30.42906 34165 ft 432 kts 342°
2026-05-07 14:54 38.59737 30.40997 34161 ft 431 kts 342°
2026-05-07 14:55 38.65550 30.39088 34151 ft 432 kts 342°
2026-05-07 14:55 38.71383 30.37160 34157 ft 433 kts 342°
2026-05-07 14:56 38.77237 30.35237 34156 ft 435 kts 342°
2026-05-07 14:56 38.83108 30.33305 34154 ft 436 kts 342°
2026-05-07 14:57 38.88990 30.31363 34165 ft 437 kts 342°
2026-05-07 14:57 38.94887 30.29411 34150 ft 438 kts 342°
2026-05-07 14:58 39.00789 30.27455 34147 ft 437 kts 342°
2026-05-07 14:58 39.06674 30.25501 34147 ft 437 kts 342°
2026-05-07 14:59 39.12520 30.23558 34147 ft 436 kts 342°
2026-05-07 14:59 39.18398 30.21601 34146 ft 436 kts 342°
2026-05-07 15:00 39.24272 30.19642 34144 ft 436 kts 342°
2026-05-07 15:00 39.30142 30.17684 34154 ft 435 kts 342°
2026-05-07 15:01 39.36010 30.15729 34139 ft 435 kts 342°
2026-05-07 15:01 39.41878 30.13765 34137 ft 435 kts 342°
2026-05-07 15:02 39.47656 30.11531 34132 ft 432 kts 335°
2026-05-07 15:02 39.53176 30.08423 34140 ft 433 kts 333°
2026-05-07 15:03 39.58713 30.05305 34129 ft 435 kts 334°
2026-05-07 15:03 39.64321 30.02183 33339 ft 450 kts 334°
2026-05-07 15:04 39.67201 30.00586 32560 ft 450 kts 334°
2026-05-07 15:04 39.70082 29.98992 31642 ft 449 kts 335°
2026-05-07 15:04 39.72951 29.97397 30828 ft 448 kts 335°
2026-05-07 15:04 39.75793 29.95809 30193 ft 442 kts 335°
2026-05-07 15:05 39.78564 29.94256 29471 ft 437 kts 335°
2026-05-07 15:05 39.81371 29.92677 28807 ft 431 kts 335°
2026-05-07 15:05 39.84086 29.91153 28602 ft 417 kts 335°
2026-05-07 15:05 39.86710 29.89678 28372 ft 404 kts 335°
2026-05-07 15:06 39.89249 29.88244 28223 ft 392 kts 335°
2026-05-07 15:06 39.91763 29.87112 28000 ft 377 kts 346°
2026-05-07 15:06 39.94361 29.86854 27701 ft 374 kts 356°
2026-05-07 15:06 39.96971 29.86881 27378 ft 378 kts 356°
2026-05-07 15:07 39.99620 29.86902 27033 ft 383 kts 356°
2026-05-07 15:07 40.02284 29.86918 26676 ft 383 kts 356°
2026-05-07 15:07 40.04951 29.86928 26310 ft 382 kts 356°
2026-05-07 15:07 40.07605 29.86933 25976 ft 381 kts 356°
2026-05-07 15:08 40.10252 29.86937 25620 ft 380 kts 356°
2026-05-07 15:08 40.12854 29.86940 25279 ft 378 kts 356°
2026-05-07 15:08 40.15478 29.86939 24938 ft 376 kts 356°
2026-05-07 15:08 40.18091 29.86932 24598 ft 374 kts 356°
2026-05-07 15:09 40.20687 29.86926 24252 ft 371 kts 356°
2026-05-07 15:09 40.23251 29.86917 23914 ft 367 kts 356°
2026-05-07 15:09 40.25790 29.86909 23559 ft 364 kts 356°
2026-05-07 15:09 40.28309 29.86904 23185 ft 360 kts 356°
2026-05-07 15:10 40.30804 29.86904 22830 ft 356 kts 356°
2026-05-07 15:10 40.33274 29.86904 22497 ft 352 kts 356°
2026-05-07 15:10 40.35718 29.86901 22199 ft 352 kts 356°
2026-05-07 15:10 40.38173 29.86892 21890 ft 355 kts 356°
2026-05-07 15:11 40.40629 29.87166 21519 ft 358 kts 10°
2026-05-07 15:11 40.42968 29.88394 21232 ft 368 kts 26°
2026-05-07 15:11 40.45101 29.90324 20909 ft 374 kts 31°
2026-05-07 15:11 40.47203 29.92317 20559 ft 372 kts 30°
2026-05-07 15:12 40.49282 29.94248 20220 ft 369 kts 30°
2026-05-07 15:12 40.51441 29.96062 19878 ft 358 kts 20°
2026-05-07 15:12 40.53756 29.96946 19559 ft 347 kts
2026-05-07 15:12 40.56158 29.97013 19235 ft 340 kts 356°
2026-05-07 15:13 40.58517 29.96945 18945 ft 346 kts 356°
2026-05-07 15:13 40.60948 29.96908 18635 ft 350 kts 357°
2026-05-07 15:13 40.63382 29.96896 18297 ft 350 kts 357°
2026-05-07 15:13 40.65819 29.96890 17929 ft 349 kts 357°
2026-05-07 15:14 40.68222 29.96675 17599 ft 345 kts 345°
2026-05-07 15:14 40.70452 29.95709 17273 ft 333 kts 337°
2026-05-07 15:14 40.72613 29.94610 16981 ft 334 kts 338°
2026-05-07 15:14 40.74805 29.93542 16684 ft 337 kts 339°
2026-05-07 15:15 40.77024 29.92498 16386 ft 339 kts 339°
2026-05-07 15:15 40.79250 29.91465 16068 ft 338 kts 339°
2026-05-07 15:15 40.81469 29.90435 15763 ft 338 kts 339°
2026-05-07 15:15 40.83624 29.89257 15451 ft 334 kts 327°
2026-05-07 15:16 40.85327 29.87208 15152 ft 334 kts 306°
2026-05-07 15:16 40.86413 29.84504 14854 ft 335 kts 291°
2026-05-07 15:16 40.86912 29.81501 14529 ft 336 kts 273°
2026-05-07 15:16 40.86860 29.78449 14232 ft 333 kts 270°
2026-05-07 15:17 40.86797 29.75368 13945 ft 336 kts 271°
2026-05-07 15:17 40.86741 29.72283 13639 ft 335 kts 271°
2026-05-07 15:17 40.86691 29.69220 13322 ft 332 kts 271°
2026-05-07 15:17 40.86646 29.66179 13000 ft 330 kts 271°
2026-05-07 15:18 40.86652 29.63153 12672 ft 328 kts 276°
2026-05-07 15:18 40.86934 29.60218 12363 ft 325 kts 281°
2026-05-07 15:18 40.87296 29.57274 12045 ft 324 kts 281°
2026-05-07 15:18 40.87636 29.54348 11735 ft 322 kts 280°
2026-05-07 15:19 40.88088 29.51483 11334 ft 317 kts 293°
2026-05-07 15:19 40.89306 29.49076 11100 ft 319 kts 316°
2026-05-07 15:19 40.91125 29.47409 11020 ft 320 kts 333°
2026-05-07 15:19 40.93233 29.46531 11000 ft 318 kts 353°
2026-05-07 15:20 40.95435 29.46400 10995 ft 317 kts 357°
2026-05-07 15:20 40.97655 29.46291 10993 ft 319 kts 353°
2026-05-07 15:20 40.99814 29.45636 11009 ft 320 kts 341°
2026-05-07 15:20 41.01930 29.44651 11006 ft 322 kts 339°
2026-05-07 15:21 41.04053 29.43666 11005 ft 324 kts 340°
2026-05-07 15:21 41.06173 29.42692 10981 ft 317 kts 336°
2026-05-07 15:21 41.08097 29.41293 11011 ft 316 kts 326°
2026-05-07 15:21 41.09926 29.39656 10997 ft 318 kts 325°
2026-05-07 15:22 41.11753 29.38022 10901 ft 314 kts 326°
2026-05-07 15:22 41.13550 29.36442 10658 ft 304 kts 324°
2026-05-07 15:22 41.15101 29.34625 10423 ft 293 kts 313°
2026-05-07 15:22 41.16444 29.32647 10210 ft 284 kts 310°
2026-05-07 15:23 41.17431 29.30476 9962 ft 271 kts 287°
2026-05-07 15:23 41.17607 29.28057 9765 ft 267 kts 264°
2026-05-07 15:23 41.17050 29.25716 9553 ft 268 kts 245°
2026-05-07 15:23 41.15931 29.23739 9334 ft 272 kts 223°
2026-05-07 15:24 41.14400 29.22251 9139 ft 274 kts 218°
2026-05-07 15:24 41.12822 29.20817 8916 ft 276 kts 218°
2026-05-07 15:24 41.11232 29.19378 8703 ft 277 kts 218°
2026-05-07 15:24 41.09650 29.17940 8468 ft 274 kts 218°
2026-05-07 15:25 41.08089 29.16512 8205 ft 269 kts 218°
2026-05-07 15:25 41.06558 29.15118 7865 ft 266 kts 218°
2026-05-07 15:25 41.05028 29.13716 7529 ft 268 kts 218°
2026-05-07 15:25 41.03503 29.12317 7392 ft 265 kts 218°
2026-05-07 15:26 41.01999 29.10933 7244 ft 262 kts 218°
2026-05-07 15:26 41.00523 29.09573 6973 ft 262 kts 218°
2026-05-07 15:26 40.99030 29.08197 6749 ft 260 kts 219°
2026-05-07 15:26 40.97525 29.06880 6488 ft 260 kts 211°
2026-05-07 15:27 40.95927 29.05633 6277 ft 263 kts 213°
2026-05-07 15:27 40.94445 29.04297 6249 ft 260 kts 216°
2026-05-07 15:27 40.92989 29.02913 6068 ft 255 kts 218°
2026-05-07 15:27 40.91817 29.01226 5625 ft 248 kts 246°
2026-05-07 15:28 40.91559 28.99046 5079 ft 241 kts 280°
2026-05-07 15:28 40.92290 28.97047 4512 ft 245 kts 301°
2026-05-07 15:28 40.93096 28.95081 4195 ft 244 kts 288°
2026-05-07 15:28 40.93688 28.92975 4174 ft 245 kts 287°
2026-05-07 15:29 40.94266 28.90862 4150 ft 241 kts 287°
2026-05-07 15:29 40.94839 28.88848 4058 ft 226 kts 287°
2026-05-07 15:29 40.95390 28.86952 3801 ft 217 kts 287°
2026-05-07 15:29 40.95928 28.85127 3528 ft 209 kts 287°
2026-05-07 15:30 40.96458 28.83364 3235 ft 203 kts 288°
2026-05-07 15:30 40.96979 28.81656 3088 ft 195 kts 287°
2026-05-07 15:30 40.97470 28.80036 3012 ft 184 kts 287°
2026-05-07 15:30 40.97933 28.78489 2998 ft 180 kts 286°
2026-05-07 15:31 40.98395 28.76947 3035 ft 182 kts 286°
2026-05-07 15:31 40.98864 28.75392 2997 ft 181 kts 286°
2026-05-07 15:31 40.99323 28.73851 2988 ft 179 kts 287°
2026-05-07 15:31 40.99984 28.72463 2980 ft 180 kts 311°
2026-05-07 15:32 41.01023 28.71531 2994 ft 188 kts 328°
2026-05-07 15:32 41.02316 28.71204 3023 ft 192 kts 352°
2026-05-07 15:32 41.03645 28.71187 2996 ft 190 kts 350°
2026-05-07 15:32 41.04950 28.71156 3032 ft 188 kts 350°
2026-05-07 15:33 41.06270 28.71130 3001 ft 190 kts 350°
2026-05-07 15:33 41.07589 28.71106 3005 ft 190 kts 350°
2026-05-07 15:33 41.08910 28.71082 2992 ft 190 kts 350°
2026-05-07 15:33 41.10210 28.71054 2975 ft 183 kts 350°
2026-05-07 15:34 41.11438 28.71023 2982 ft 171 kts 348°
2026-05-07 15:34 41.12631 28.70996 2999 ft 171 kts 348°
2026-05-07 15:34 41.13836 28.70978 2758 ft 173 kts 349°
2026-05-07 15:34 41.15029 28.70960 2538 ft 170 kts 349°
2026-05-07 15:35 41.16200 28.70933 2324 ft 168 kts 349°
2026-05-07 15:35 41.17371 28.70909 2107 ft 169 kts 350°
2026-05-07 15:35 41.18151 28.70901 1967 ft 170 kts 351°
2026-05-07 15:35 41.19329 28.70884 1745 ft 169 kts 351°
2026-05-07 15:36 41.20882 28.70852 1423 ft 163 kts 351°
2026-05-07 15:36 41.21643 28.70833 1279 ft 161 kts 349°
2026-05-07 15:36 41.22769 28.70804 1067 ft 162 kts 350°
2026-05-07 15:36 41.23871 28.70784 887 ft 160 kts 350°
2026-05-07 15:37 41.24999 28.70756 665 ft 162 kts 352°
2026-05-07 15:37 41.26103 28.70623 468 ft 158 kts
2026-05-07 15:37 41.27190 28.70761 201 ft 154 kts 355°
2026-05-07 15:37 41.28186 28.70682 200 ft 119 kts 359°
2026-05-07 15:38 41.28843 28.70687 181 ft 72 kts
2026-05-07 15:38 41.29256 28.70699 194 ft 58 kts 359°
2026-05-07 15:38 41.29555 28.70685 192 ft 19 kts 358°
2026-05-07 15:38 41.29648 28.70719 201 ft 12 kts 26°
2026-05-07 15:39 41.29663 28.70787 183 ft 8 kts 95°
2026-05-07 15:39 41.29661 28.70819 182 ft 0 kts 94°
2026-05-07 15:39 41.29660 28.70831 182 ft 0 kts 96°
2026-05-07 15:39 41.29660 28.70837 182 ft 6 kts 97°
2026-05-07 15:40 41.29657 28.71033 182 ft 20 kts 90°
2026-05-07 15:40 41.29560 28.71156 182 ft 33 kts 179°
2026-05-07 15:40 41.29274 28.71165 182 ft 46 kts 179°
2026-05-07 15:40 41.28966 28.71174 182 ft 43 kts 179°
2026-05-07 15:41 41.28678 28.71176 182 ft 40 kts 179°
2026-05-07 15:41 41.28409 28.71185 181 ft 38 kts 180°
2026-05-07 15:41 41.28155 28.71188 182 ft 35 kts 180°